#�ϑ�����,���ϕ���,���ϕ���,�ő啗��,�ő啗����������,�ő�u�ԕ���,�ő�u�ԕ�����������
#(�N����),(m/s)   ,(16����),(m/s)   ,(16����)        ,(m/s)       ,(16����)            
2013/3/2 0:01,4.7,15,4.7,16,10.3,16
2013/3/2 0:02,4.6,15,4.7,16,9.1,16
2013/3/2 0:03,4.9,15,4.9,16,9.8,16
2013/3/2 0:04,4.8,15,4.9,16,7.5,16
2013/3/2 0:05,4.8,15,4.9,16,8.3,15
2013/3/2 0:06,4.4,15,4.8,16,2.9,16
2013/3/2 0:07,4.3,15,4.4,16,4.9,15
2013/3/2 0:08,4.2,15,4.2,16,8.6,14
2013/3/2 0:09,4.3,15,4.3,15,7.1,15
2013/3/2 0:10,4.4,15,4.4,15,11.5,14
2013/3/2 0:11,4.3,15,4.5,15,6.4,1
2013/3/2 0:12,4.2,15,4.3,15,8.5,15
2013/3/2 0:13,4,15,4.2,15,9,16
2013/3/2 0:14,4.1,15,4.1,15,5.7,15
2013/3/2 0:15,3.8,15,4,15,4.8,1
2013/3/2 0:16,3.9,15,3.9,15,4.5,16
2013/3/2 0:17,4,15,4,15,6.4,16
2013/3/2 0:18,4,15,4.1,15,6.9,15
2013/3/2 0:19,3.9,16,4,15,5.5,15
2013/3/2 0:20,3.7,16,3.9,15,6.2,15
2013/3/2 0:21,3.8,16,3.8,15,9.7,16
2013/3/2 0:22,4.1,16,4.1,15,10,14
2013/3/2 0:23,4.2,16,4.2,16,8.1,16
2013/3/2 0:24,4.3,16,4.3,16,7.6,15
2013/3/2 0:25,4.7,16,4.7,16,9.8,16
2013/3/2 0:26,5,16,5,16,8.7,15
2013/3/2 0:27,5,15,5,16,5.4,14
2013/3/2 0:28,5,15,5,16,6.3,15
2013/3/2 0:29,5,15,5,16,7,16
2013/3/2 0:30,5,15,5.1,15,5.1,15
2013/3/2 0:31,4.7,15,5,15,4.5,15
2013/3/2 0:32,4.4,15,4.7,15,6.3,16
2013/3/2 0:33,4.2,15,4.4,15,7.4,16
2013/3/2 0:34,4.2,15,4.3,15,9,16
2013/3/2 0:35,4,15,4.2,15,7,1
2013/3/2 0:36,3.8,15,4,15,5.2,16
2013/3/2 0:37,3.7,16,3.8,15,5.6,16
2013/3/2 0:38,3.7,16,3.7,15,6.4,16
2013/3/2 0:39,3.5,16,3.7,15,5,15
2013/3/2 0:40,3.5,16,3.6,15,4.2,16
2013/3/2 0:41,3.4,16,3.6,15,3,1
2013/3/2 0:42,3.3,16,3.4,15,4.4,16
2013/3/2 0:43,3.3,16,3.3,15,6.2,15
2013/3/2 0:44,3.2,16,3.3,15,8.5,16
2013/3/2 0:45,3.2,16,3.2,15,7.2,16
2013/3/2 0:46,3.4,16,3.4,16,6.2,16
2013/3/2 0:47,3.2,16,3.3,16,4.3,15
2013/3/2 0:48,3.1,16,3.2,16,3.8,15
2013/3/2 0:49,3.1,16,3.1,16,3.7,15
2013/3/2 0:50,3.2,16,3.2,16,5.4,16
2013/3/2 0:51,3.8,16,3.8,16,8.7,16
2013/3/2 0:52,3.9,16,3.9,16,6.8,1
2013/3/2 0:53,4,16,4.1,16,7.9,1
2013/3/2 0:54,3.9,16,4,16,4.7,16
2013/3/2 0:55,3.6,16,3.9,16,4.2,2
2013/3/2 0:56,3.6,16,3.6,16,6.1,15
2013/3/2 0:57,3.6,16,3.6,16,5.2,2
2013/3/2 0:58,3.5,16,3.6,16,2.7,15
2013/3/2 0:59,3.8,16,3.8,16,8.9,16
2013/3/2 1:00,3.7,1,3.8,16,7.2,2
2013/3/2 1:01,3.4,1,3.7,16,6.7,1
2013/3/2 1:02,3.2,1,3.3,16,4.2,16
2013/3/2 1:03,3.1,16,3.1,16,6.4,1
2013/3/2 1:04,3.1,1,3.2,16,4.9,16
2013/3/2 1:05,3,16,3.1,16,3.3,2
2013/3/2 1:06,2.9,1,3,16,5.1,16
2013/3/2 1:07,3.2,16,3.2,16,11.1,16
2013/3/2 1:08,3.4,16,3.4,16,6.2,15
2013/3/2 1:09,3.2,16,3.4,16,4.5,2
2013/3/2 1:10,3.2,16,3.2,1,5.7,16
2013/3/2 1:11,3.3,16,3.3,16,7.2,1
2013/3/2 1:12,3.7,16,3.7,16,9.4,16
2013/3/2 1:13,3.8,16,3.9,16,10.1,16
2013/3/2 1:14,3.8,16,3.8,16,4.4,15
2013/3/2 1:15,3.8,16,3.8,16,2.2,16
2013/3/2 1:16,3.6,16,3.8,16,1.3,11
2013/3/2 1:17,3.1,16,3.6,16,2.2,1
2013/3/2 1:18,2.9,16,3.1,16,3,3
2013/3/2 1:19,3,15,3,16,5.7,14
2013/3/2 1:20,2.9,15,3,16,4.9,12
2013/3/2 1:21,2.9,15,3,16,6.8,14
2013/3/2 1:22,2.4,15,2.9,16,2.2,15
2013/3/2 1:23,1.9,14,2.3,16,2.4,12
2013/3/2 1:24,1.8,14,1.9,16,2,12
2013/3/2 1:25,1.7,14,1.8,16,2.6,10
2013/3/2 1:26,1.8,13,1.8,16,1.9,11
2013/3/2 1:27,1.8,12,1.8,16,3.5,8
2013/3/2 1:28,1.8,12,1.9,16,3.7,9
2013/3/2 1:29,1.6,11,1.8,15,2.6,10
2013/3/2 1:30,1.4,10,1.6,15,1.3,5
2013/3/2 1:31,1.1,10,1.4,15,1.5,12
2013/3/2 1:32,1,10,1.1,15,0.6,16
2013/3/2 1:33,1,10,1,14,1.3,9
2013/3/2 1:34,1,9,1,12,2.2,7
2013/3/2 1:35,0.9,9,1,12,1,7
2013/3/2 1:36,1,9,1,12,2.9,8
2013/3/2 1:37,0.9,9,1,12,1.8,9
2013/3/2 1:38,0.9,9,0.9,12,2.1,15
2013/3/2 1:39,0.9,9,0.9,11,2.4,14
2013/3/2 1:40,0.9,9,0.9,10,3.2,3
2013/3/2 1:41,1.1,9,1.1,10,3.8,3
2013/3/2 1:42,1.2,7,1.2,8,2.5,16
2013/3/2 1:43,1.4,3,1.4,6,4.1,3
2013/3/2 1:44,1.4,2,1.4,6,2.1,3
2013/3/2 1:45,1.5,2,1.5,2,4.5,1
2013/3/2 1:46,1.7,1,1.7,1,6,1
2013/3/2 1:47,2,1,2,1,7.1,16
2013/3/2 1:48,2.4,1,2.4,1,8.5,1
2013/3/2 1:49,2.7,1,2.7,1,9.3,1
2013/3/2 1:50,2.8,1,2.8,1,4.2,16
2013/3/2 1:51,2.9,1,2.9,1,7.8,1
2013/3/2 1:52,3.1,16,3.1,16,7.1,15
2013/3/2 1:53,3.6,16,3.6,16,10.7,15
2013/3/2 1:54,4.2,16,4.2,16,12.5,15
2013/3/2 1:55,4.3,16,4.3,16,7,12
2013/3/2 1:56,4.2,15,4.3,16,5.8,14
2013/3/2 1:57,4,15,4.2,16,5.1,10
2013/3/2 1:58,3.6,14,4,16,2.1,12
2013/3/2 1:59,3.4,15,3.6,16,3.2,2
2013/3/2 2:00,3.4,15,3.4,16,5.8,16
2013/3/2 2:01,3.3,14,3.5,16,4.7,16
2013/3/2 2:02,3.1,14,3.3,16,2.9,8
2013/3/2 2:03,2.7,13,3,16,5.4,8
2013/3/2 2:04,2,12,2.6,16,3.1,9
2013/3/2 2:05,1.9,12,2,15,3.5,15
2013/3/2 2:06,2,13,2,15,6.7,16
2013/3/2 2:07,1.9,14,2,15,2.6,14
2013/3/2 2:08,1.9,15,1.9,14,1.6,2
2013/3/2 2:09,1.8,14,1.9,15,1.5,6
2013/3/2 2:10,1.7,12,1.8,15,5.1,13
2013/3/2 2:11,1.7,12,1.7,14,3.5,11
2013/3/2 2:12,1.7,14,1.7,14,5.8,1
2013/3/2 2:13,1.9,15,1.9,12,7.1,1
2013/3/2 2:14,2.3,16,2.3,16,10.3,16
2013/3/2 2:15,2.6,16,2.6,16,10.6,15
2013/3/2 2:16,2.8,16,2.8,16,10.5,15
2013/3/2 2:17,2.8,16,2.8,16,8.1,15
2013/3/2 2:18,2.8,15,2.8,16,3.6,13
2013/3/2 2:19,3.2,15,3.2,15,8.2,15
2013/3/2 2:20,3.6,15,3.6,15,9.3,15
2013/3/2 2:21,4,16,4,16,7.2,15
2013/3/2 2:22,4,15,4.1,16,7,15
2013/3/2 2:23,3.8,15,4,16,3.2,13
2013/3/2 2:24,3.4,15,3.8,16,2.4,5
2013/3/2 2:25,3.1,15,3.4,16,3,5
2013/3/2 2:26,2.7,14,3.1,16,2.9,9
2013/3/2 2:27,2.7,13,2.7,16,3.2,9
2013/3/2 2:28,2.8,12,2.8,16,2.5,9
2013/3/2 2:29,2.6,9,2.8,16,3.6,6
2013/3/2 2:30,2.1,9,2.5,16,3.6,15
2013/3/2 2:31,1.7,9,2,16,4.1,14
2013/3/2 2:32,1.6,9,1.7,15,3.2,14
2013/3/2 2:33,1.6,9,1.6,15,2.9,11
2013/3/2 2:34,1.7,9,1.7,15,4.1,2
2013/3/2 2:35,1.6,10,1.7,15,2,1
2013/3/2 2:36,1.7,10,1.7,13,4.9,4
2013/3/2 2:37,1.6,10,1.7,13,3.3,4
2013/3/2 2:38,1.6,10,1.6,12,1.4,7
2013/3/2 2:39,1.5,12,1.6,9,2.2,13
2013/3/2 2:40,1.5,11,1.6,9,2.6,9
2013/3/2 2:41,1.6,10,1.6,9,5,7
2013/3/2 2:42,1.7,9,1.7,9,4.8,8
2013/3/2 2:43,1.6,9,1.7,9,3.7,9
2013/3/2 2:44,1.7,9,1.7,9,3.8,8
2013/3/2 2:45,1.8,9,1.8,9,4.2,10
2013/3/2 2:46,1.9,9,1.9,9,4.2,9
2013/3/2 2:47,2,10,2,10,3.8,15
2013/3/2 2:48,2.3,10,2.3,10,4.8,16
2013/3/2 2:49,2.4,10,2.4,10,4.1,15
2013/3/2 2:50,2.4,11,2.4,10,2.7,15
2013/3/2 2:51,2.2,12,2.4,10,2.2,3
2013/3/2 2:52,2.2,12,2.2,10,4.1,8
2013/3/2 2:53,2.2,12,2.2,10,6.4,11
2013/3/2 2:54,2.4,12,2.4,10,6.7,11
2013/3/2 2:55,2.3,13,2.4,10,3.5,13
2013/3/2 2:56,2.2,13,2.3,10,3.1,13
2013/3/2 2:57,2,12,2.2,10,2.9,7
2013/3/2 2:58,1.9,11,2,10,3.8,10
2013/3/2 2:59,1.9,11,1.9,10,3.8,11
2013/3/2 3:00,1.8,10,1.8,11,3.1,9
2013/3/2 3:01,1.8,10,1.8,12,2.5,8
2013/3/2 3:02,1.8,10,1.8,12,1.9,8
2013/3/2 3:03,1.7,10,1.8,12,2.4,8
2013/3/2 3:04,1.4,9,1.7,12,2.1,9
2013/3/2 3:05,1.3,9,1.4,13,1.6,9
2013/3/2 3:06,1.4,9,1.4,13,2.2,10
2013/3/2 3:07,1.5,9,1.5,12,5.6,8
2013/3/2 3:08,1.5,9,1.5,11,3.8,7
2013/3/2 3:09,1.5,9,1.5,11,3.7,10
2013/3/2 3:10,1.5,9,1.6,10,2.7,10
2013/3/2 3:11,1.4,9,1.5,10,0.9,9
2013/3/2 3:12,1.4,9,1.4,10,0.9,10
2013/3/2 3:13,1.3,9,1.3,9,1.8,16
2013/3/2 3:14,1.3,10,1.3,9,1.1,16
2013/3/2 3:15,1.2,10,1.2,9,0.8,1
2013/3/2 3:16,1.1,11,1.2,9,1.1,16
2013/3/2 3:17,0.9,12,1.1,9,1.4,13
2013/3/2 3:18,0.9,13,0.9,9,2.7,2
2013/3/2 3:19,1,14,1,9,5.2,14
2013/3/2 3:20,1.3,15,1.3,9,6.2,16
2013/3/2 3:21,1.4,15,1.4,9,3.5,16
2013/3/2 3:22,1.5,15,1.5,15,2.5,16
2013/3/2 3:23,1.6,15,1.6,15,2,2
2013/3/2 3:24,1.6,16,1.6,15,2.6,2
2013/3/2 3:25,1.8,16,1.8,16,3.5,2
2013/3/2 3:26,1.9,16,1.9,16,3.5,1
2013/3/2 3:27,2,16,2,16,5,2
2013/3/2 3:28,2.1,16,2.1,16,5,16
2013/3/2 3:29,2,16,2.1,16,3.8,12
2013/3/2 3:30,1.8,16,2,16,2.1,12
2013/3/2 3:31,1.7,16,1.8,16,2.5,8
2013/3/2 3:32,1.6,1,1.7,16,2,8
2013/3/2 3:33,1.7,16,1.7,16,4.8,8
2013/3/2 3:34,1.8,16,1.8,16,3.9,8
2013/3/2 3:35,1.8,13,1.8,16,3.2,10
2013/3/2 3:36,1.7,10,1.8,16,2.7,8
2013/3/2 3:37,1.6,9,1.7,16,1.4,1
2013/3/2 3:38,1.4,8,1.6,16,3.9,8
2013/3/2 3:39,1.5,7,1.5,16,3.9,9
2013/3/2 3:40,1.6,7,1.6,16,3.6,8
2013/3/2 3:41,1.5,8,1.6,16,1.6,8
2013/3/2 3:42,1.5,7,1.6,16,1.4,8
2013/3/2 3:43,1.5,7,1.5,16,2.9,15
2013/3/2 3:44,1.5,6,1.5,15,3.6,15
2013/3/2 3:45,1.4,7,1.5,12,1.5,15
2013/3/2 3:46,1.3,7,1.4,10,0.9,9
2013/3/2 3:47,1.3,9,1.3,9,1.3,2
2013/3/2 3:48,1.4,8,1.4,7,3.8,2
2013/3/2 3:49,1.3,16,1.4,7,3.3,2
2013/3/2 3:50,1.3,15,1.3,7,2.6,14
2013/3/2 3:51,1.3,15,1.3,8,2.2,13
2013/3/2 3:52,1.5,14,1.5,7,4.1,13
2013/3/2 3:53,1.4,14,1.5,7,1.5,11
2013/3/2 3:54,1.4,14,1.4,6,4.8,16
2013/3/2 3:55,1.7,14,1.7,14,9,1
2013/3/2 3:56,2.3,15,2.3,15,9,16
2013/3/2 3:57,2.6,15,2.6,15,6.2,15
2013/3/2 3:58,2.7,15,2.7,15,5.2,15
2013/3/2 3:59,3,15,3,15,7.4,16
2013/3/2 4:00,3.1,16,3.1,16,5.7,15
2013/3/2 4:01,3.4,16,3.4,16,9.1,16
2013/3/2 4:02,3.8,16,3.8,16,10.8,16
2013/3/2 4:03,4.5,16,4.5,16,10.5,16
2013/3/2 4:04,4.9,16,4.9,16,9.4,15
2013/3/2 4:05,4.7,16,5,16,6.2,15
2013/3/2 4:06,4.4,15,4.7,16,3.6,13
2013/3/2 4:07,4.3,16,4.4,16,7.6,16
2013/3/2 4:08,4.5,15,4.5,16,9.5,16
2013/3/2 4:09,4.5,15,4.5,16,6.2,16
2013/3/2 4:10,4.5,15,4.5,16,7,15
2013/3/2 4:11,4.5,15,4.6,16,8.1,14
2013/3/2 4:12,4.2,15,4.5,16,5.6,16
2013/3/2 4:13,3.8,15,4.1,16,7.2,15
2013/3/2 4:14,3.6,15,3.8,16,8.2,15
2013/3/2 4:15,3.7,15,3.7,16,5.8,14
2013/3/2 4:16,3.6,16,3.7,15,4.8,16
2013/3/2 4:17,3.7,16,3.8,15,5.4,15
2013/3/2 4:18,3.4,15,3.7,15,3,14
2013/3/2 4:19,3.1,15,3.4,15,2.2,1
2013/3/2 4:20,2.9,15,3.1,15,1.4,16
2013/3/2 4:21,2.5,15,2.8,15,1.1,11
2013/3/2 4:22,2.2,15,2.4,15,0.8,8
2013/3/2 4:23,1.8,15,2.1,15,1.6,9
2013/3/2 4:24,1.5,14,1.7,16,2.5,9
2013/3/2 4:25,1.3,13,1.4,16,3.8,10
2013/3/2 4:26,1.4,12,1.4,16,5.2,14
2013/3/2 4:27,1.5,12,1.5,16,5.4,14
2013/3/2 4:28,1.6,11,1.6,15,4.7,11
2013/3/2 4:29,1.9,11,1.9,15,6.3,10
2013/3/2 4:30,2.2,11,2.2,15,7,10
2013/3/2 4:31,2.2,11,2.2,15,2.4,2
2013/3/2 4:32,2.5,11,2.5,11,3.8,3
2013/3/2 4:33,2.8,11,2.8,11,4.7,3
2013/3/2 4:34,3,10,3,11,5.6,8
2013/3/2 4:35,3.4,10,3.4,10,6.5,8
2013/3/2 4:36,3.3,9,3.4,10,4.9,8
2013/3/2 4:37,3.1,9,3.3,10,4.2,10
2013/3/2 4:38,3,9,3.1,10,5,9
2013/3/2 4:39,2.9,8,3.1,10,5,8
2013/3/2 4:40,2.7,8,2.8,10,3.2,8
2013/3/2 4:41,2.8,8,2.8,10,3.9,9
2013/3/2 4:42,2.7,9,2.8,10,3.2,9
2013/3/2 4:43,2.5,9,2.7,10,3.5,10
2013/3/2 4:44,2.3,9,2.5,10,3.2,9
2013/3/2 4:45,2,9,2.3,10,4.2,8
2013/3/2 4:46,2,9,2,9,3.6,9
2013/3/2 4:47,1.9,9,2,9,3.3,9
2013/3/2 4:48,1.8,9,1.9,9,3.1,9
2013/3/2 4:49,1.8,9,1.8,8,3,9
2013/3/2 4:50,1.7,9,1.8,8,3,8
2013/3/2 4:51,1.7,9,1.7,8,3.1,9
2013/3/2 4:52,1.7,9,1.7,9,3.3,9
2013/3/2 4:53,1.7,9,1.7,9,3,8
2013/3/2 4:54,1.7,9,1.7,9,2.4,10
2013/3/2 4:55,1.6,9,1.7,9,2.5,10
2013/3/2 4:56,1.4,9,1.6,9,1.5,8
2013/3/2 4:57,1.3,10,1.4,9,1.1,11
2013/3/2 4:58,1.3,10,1.3,9,2.5,16
2013/3/2 4:59,1.2,11,1.3,9,2.4,15
2013/3/2 5:00,1.1,11,1.2,9,1.3,16
2013/3/2 5:01,1.1,12,1.1,9,1.3,9
2013/3/2 5:02,1,12,1.1,9,2.4,10
2013/3/2 5:03,1,11,1,9,2.4,9
2013/3/2 5:04,1,12,1,9,1.4,10
2013/3/2 5:05,1,12,1,9,2.7,14
2013/3/2 5:06,1.2,13,1.2,9,3.2,16
2013/3/2 5:07,1.2,13,1.2,10,2.7,16
2013/3/2 5:08,1.3,13,1.3,10,3.2,16
2013/3/2 5:09,1.3,13,1.3,13,3.2,16
2013/3/2 5:10,1.5,14,1.5,14,2.7,15
2013/3/2 5:11,1.6,14,1.6,14,3,14
2013/3/2 5:12,1.7,15,1.7,15,3.2,15
2013/3/2 5:13,1.7,15,1.7,15,1.8,14
2013/3/2 5:14,1.6,14,1.7,15,0.8,12
2013/3/2 5:15,1.6,14,1.6,15,1.8,14
2013/3/2 5:16,1.5,14,1.6,15,1.6,12
2013/3/2 5:17,1.4,14,1.5,15,1.5,12
2013/3/2 5:18,1.3,14,1.4,15,0.9,10
2013/3/2 5:19,1.2,14,1.3,15,1.4,16
2013/3/2 5:20,1.1,13,1.1,15,2.6,15
2013/3/2 5:21,1,13,1.1,15,3.8,15
2013/3/2 5:22,1,13,1,15,3.9,16
2013/3/2 5:23,1,13,1,15,2,14
2013/3/2 5:24,1.1,13,1.1,14,1.6,11
2013/3/2 5:25,1.1,13,1.1,14,3,9
2013/3/2 5:26,1,13,1.1,14,1.4,9
2013/3/2 5:27,1.1,13,1.1,14,3,9
2013/3/2 5:28,1.2,14,1.2,14,3.2,16
2013/3/2 5:29,1.3,13,1.3,14,3.5,12
2013/3/2 5:30,1.6,13,1.6,13,5,12
2013/3/2 5:31,1.7,12,1.7,12,4.7,12
2013/3/2 5:32,1.8,12,1.8,12,5,13
2013/3/2 5:33,1.8,11,1.9,12,4.4,12
2013/3/2 5:34,1.8,12,1.9,12,2,11
2013/3/2 5:35,1.9,12,1.9,12,2.9,12
2013/3/2 5:36,1.9,13,1.9,12,1.8,16
2013/3/2 5:37,1.8,13,1.9,12,1.6,1
2013/3/2 5:38,1.8,13,1.8,12,1.1,4
2013/3/2 5:39,1.6,13,1.8,12,3.8,2
2013/3/2 5:40,1.4,13,1.6,12,3.1,15
2013/3/2 5:41,1.3,14,1.5,12,4.3,15
2013/3/2 5:42,1.2,14,1.3,12,3.6,15
2013/3/2 5:43,1.3,14,1.3,12,4.4,11
2013/3/2 5:44,1.3,14,1.3,12,1.9,13
2013/3/2 5:45,1.3,14,1.3,12,3.2,10
2013/3/2 5:46,1.3,14,1.4,13,2.1,13
2013/3/2 5:47,1.5,14,1.5,13,4.9,15
2013/3/2 5:48,1.8,14,1.8,13,4.5,15
2013/3/2 5:49,1.9,14,1.9,14,3.1,14
2013/3/2 5:50,1.9,13,2,14,3,14
2013/3/2 5:51,1.8,13,1.9,14,1.4,13
2013/3/2 5:52,1.7,13,1.8,14,1.1,16
2013/3/2 5:53,1.5,13,1.6,14,0.9,9
2013/3/2 5:54,1.5,13,1.5,14,1.8,8
2013/3/2 5:55,1.5,14,1.5,14,4.1,16
2013/3/2 5:56,1.7,14,1.7,14,4.8,15
2013/3/2 5:57,1.7,14,1.7,14,4.5,16
2013/3/2 5:58,1.5,15,1.6,14,2.1,1
2013/3/2 5:59,1.4,15,1.4,14,2.2,12
2013/3/2 6:00,1.5,15,1.5,13,3.7,11
2013/3/2 6:01,1.6,14,1.6,13,4.7,9
2013/3/2 6:02,1.7,13,1.7,14,3,10
2013/3/2 6:03,1.7,13,1.7,14,0.9,10
2013/3/2 6:04,1.7,13,1.7,14,1.5,11
2013/3/2 6:05,1.6,13,1.7,14,1.9,13
2013/3/2 6:06,1.5,12,1.6,14,1.8,14
2013/3/2 6:07,1.4,12,1.5,13,2.9,14
2013/3/2 6:08,1.4,12,1.4,13,1.5,13
2013/3/2 6:09,1.3,12,1.4,13,0.8,16
2013/3/2 6:10,1.2,12,1.3,13,3,10
2013/3/2 6:11,1.3,12,1.3,13,4.8,10
2013/3/2 6:12,1.4,12,1.4,13,3,11
2013/3/2 6:13,1.5,12,1.5,13,3.3,9
2013/3/2 6:14,1.5,12,1.6,13,2.2,9
2013/3/2 6:15,1.5,12,1.5,13,1.8,16
2013/3/2 6:16,1.5,12,1.5,12,2.5,2
2013/3/2 6:17,1.5,11,1.5,12,2.9,3
2013/3/2 6:18,1.4,11,1.5,12,1,5
2013/3/2 6:19,1.5,10,1.5,12,1.9,3
2013/3/2 6:20,1.5,6,1.6,12,2.4,6
2013/3/2 6:21,1.4,5,1.5,12,2.6,5
2013/3/2 6:22,1.4,4,1.4,12,2.7,5
2013/3/2 6:23,1.5,4,1.5,12,4.5,2
2013/3/2 6:24,1.8,3,1.8,3,6.3,3
2013/3/2 6:25,1.9,3,1.9,3,4.4,1
2013/3/2 6:26,2,4,2,3,2.6,5
2013/3/2 6:27,1.8,4,2,3,1.5,9
2013/3/2 6:28,1.8,4,1.8,3,2,8
2013/3/2 6:29,1.8,4,1.8,3,2.5,10
2013/3/2 6:30,1.9,4,1.9,3,3.8,13
2013/3/2 6:31,2,1,2,3,4.5,14
2013/3/2 6:32,2.1,14,2.1,14,5.5,8
2013/3/2 6:33,2,12,2.1,14,5.7,9
2013/3/2 6:34,1.9,11,2,14,7.1,10
2013/3/2 6:35,2.1,11,2.1,14,6.8,16
2013/3/2 6:36,2.3,12,2.3,12,6.7,12
2013/3/2 6:37,2.4,12,2.4,12,5,11
2013/3/2 6:38,2.7,12,2.7,12,5.4,12
2013/3/2 6:39,3,12,3,12,7.7,14
2013/3/2 6:40,3.1,13,3.2,12,6.3,14
2013/3/2 6:41,3,13,3.1,12,4.2,1
2013/3/2 6:42,3.1,14,3.1,12,4.2,1
2013/3/2 6:43,3.1,14,3.1,12,5,16
2013/3/2 6:44,3,15,3.1,12,4.2,15
2013/3/2 6:45,3,15,3,12,7.4,1
2013/3/2 6:46,3.1,15,3.1,12,6.1,16
2013/3/2 6:47,3,15,3.1,12,5.4,16
2013/3/2 6:48,3,16,3,12,4.2,16
2013/3/2 6:49,2.7,16,3,12,2.2,15
2013/3/2 6:50,2.4,16,2.6,13,1.8,12
2013/3/2 6:51,2.4,16,2.5,13,2.2,16
2013/3/2 6:52,2.3,16,2.4,14,3,1
2013/3/2 6:53,2.3,16,2.3,14,4.1,16
2013/3/2 6:54,2.2,16,2.3,15,3.1,1
2013/3/2 6:55,1.9,16,2.2,15,0.9,4
2013/3/2 6:56,1.6,16,1.8,15,2.7,13
2013/3/2 6:57,1.5,16,1.6,16,1.9,11
2013/3/2 6:58,1.4,16,1.5,16,3.1,16
2013/3/2 6:59,1.7,16,1.7,16,8.6,16
2013/3/2 7:00,1.8,16,1.8,16,7.6,16
2013/3/2 7:01,1.8,16,1.8,16,2.4,15
2013/3/2 7:02,1.9,16,1.9,16,3.9,14
2013/3/2 7:03,1.7,15,1.9,16,2,12
2013/3/2 7:04,1.7,15,1.7,16,1.4,9
2013/3/2 7:05,1.7,14,1.7,16,2.5,9
2013/3/2 7:06,1.8,14,1.8,16,2.1,11
2013/3/2 7:07,1.8,13,1.8,16,2,9
2013/3/2 7:08,1.8,12,1.8,16,3.1,10
2013/3/2 7:09,1.7,11,1.8,16,4.2,10
2013/3/2 7:10,1.6,11,1.7,16,4.3,9
2013/3/2 7:11,1.6,10,1.6,16,3,9
2013/3/2 7:12,1.4,10,1.6,16,0.9,9
2013/3/2 7:13,1.3,10,1.4,14,1,1
2013/3/2 7:14,1.3,10,1.3,14,2,16
2013/3/2 7:15,1.3,11,1.3,14,1.8,2
2013/3/2 7:16,1.3,11,1.3,14,2.5,1
2013/3/2 7:17,1.2,11,1.3,13,1.3,14
2013/3/2 7:18,1.1,12,1.2,12,1,13
2013/3/2 7:19,1,13,1.1,11,3.5,12
2013/3/2 7:20,1,13,1,11,3.2,11
2013/3/2 7:21,1.1,14,1.1,10,3.3,13
2013/3/2 7:22,1.3,14,1.3,10,4.1,13
2013/3/2 7:23,1.4,13,1.4,14,3.2,13
2013/3/2 7:24,1.5,12,1.5,13,3.5,11
2013/3/2 7:25,1.6,12,1.6,12,2.1,10
2013/3/2 7:26,1.6,12,1.6,12,2.9,11
2013/3/2 7:27,1.7,12,1.7,12,2.4,9
2013/3/2 7:28,1.8,11,1.8,12,1.3,13
2013/3/2 7:29,1.7,12,1.8,12,2.1,12
2013/3/2 7:30,1.6,12,1.7,12,1.3,14
2013/3/2 7:31,1.4,12,1.6,12,1.4,12
2013/3/2 7:32,1.4,12,1.4,12,2.2,14
2013/3/2 7:33,1.3,12,1.3,12,1.8,15
2013/3/2 7:34,1.2,13,1.3,12,2,16
2013/3/2 7:35,1.1,13,1.2,12,1.4,16
2013/3/2 7:36,1.1,14,1.1,12,1.5,14
2013/3/2 7:37,1,14,1.1,12,1.4,16
2013/3/2 7:38,1.1,14,1.1,11,1.8,15
2013/3/2 7:39,1.1,15,1.1,12,1.9,16
2013/3/2 7:40,1.1,15,1.1,12,2,16
2013/3/2 7:41,1.2,15,1.2,12,1.6,14
2013/3/2 7:42,1.2,15,1.2,12,2.5,12
2013/3/2 7:43,1.3,15,1.3,12,2.5,12
2013/3/2 7:44,1.4,14,1.4,14,2.6,12
2013/3/2 7:45,1.5,14,1.5,14,2.6,12
2013/3/2 7:46,1.5,14,1.5,14,2,10
2013/3/2 7:47,1.6,13,1.6,13,3,9
2013/3/2 7:48,1.5,12,1.6,13,2,10
2013/3/2 7:49,1.6,12,1.6,13,2.1,12
2013/3/2 7:50,1.6,12,1.6,13,2.2,14
2013/3/2 7:51,1.6,12,1.6,13,2.4,12
2013/3/2 7:52,1.6,12,1.6,13,2.2,12
2013/3/2 7:53,1.6,12,1.6,13,2.2,10
2013/3/2 7:54,1.5,11,1.6,13,2,10
2013/3/2 7:55,1.6,11,1.6,13,3.3,11
2013/3/2 7:56,1.7,11,1.7,11,3.5,9
2013/3/2 7:57,1.6,12,1.7,11,2.1,9
2013/3/2 7:58,1.6,11,1.6,11,1.9,10
2013/3/2 7:59,1.5,11,1.6,11,1.4,8
2013/3/2 8:00,1.5,10,1.5,11,1.1,4
2013/3/2 8:01,1.3,10,1.5,11,0.6,5
2013/3/2 8:02,1.2,10,1.3,11,1.8,10
2013/3/2 8:03,1.1,10,1.2,11,2.2,11
2013/3/2 8:04,1.1,10,1.1,11,1.6,12
2013/3/2 8:05,0.9,11,1,11,1.8,16
2013/3/2 8:06,0.8,13,0.9,11,1.9,15
2013/3/2 8:07,0.9,13,0.9,12,2,15
2013/3/2 8:08,1,15,1,11,2.7,15
2013/3/2 8:09,1.1,15,1.1,11,4.2,5
2013/3/2 8:10,1.1,15,1.1,10,2,3
2013/3/2 8:11,1.4,14,1.4,14,4.3,15
2013/3/2 8:12,1.7,15,1.7,14,5.2,11
2013/3/2 8:13,1.8,15,1.8,15,4.8,15
2013/3/2 8:14,2,15,2,15,4.5,16
2013/3/2 8:15,2.2,15,2.2,15,4.4,14
2013/3/2 8:16,2.2,14,2.2,15,2.5,13
2013/3/2 8:17,2.1,14,2.2,15,1.3,13
2013/3/2 8:18,2,14,2.1,15,1.9,15
2013/3/2 8:19,2,13,2.1,15,3.7,15
2013/3/2 8:20,2.1,13,2.1,15,3.2,10
2013/3/2 8:21,2,13,2.1,15,3.6,11
2013/3/2 8:22,1.7,12,2,15,3,11
2013/3/2 8:23,1.6,12,1.7,15,1.5,10
2013/3/2 8:24,1.4,12,1.6,15,1.8,12
2013/3/2 8:25,1.2,12,1.4,15,1.8,12
2013/3/2 8:26,1.2,12,1.3,14,1.9,12
2013/3/2 8:27,1.2,12,1.3,14,1.5,12
2013/3/2 8:28,1.2,12,1.2,14,0.3,12
2013/3/2 8:29,1,12,1.1,13,1.1,1
2013/3/2 8:30,0.9,12,1,13,1.5,16
2013/3/2 8:31,0.8,13,0.9,13,1.3,1
2013/3/2 8:32,0.8,14,0.8,12,1.4,13
2013/3/2 8:33,0.9,14,0.9,12,2.2,14
2013/3/2 8:34,0.9,14,0.9,12,2.5,13
2013/3/2 8:35,1,14,1,12,2.7,15
2013/3/2 8:36,1.1,15,1.1,12,2.7,15
2013/3/2 8:37,1.1,15,1.1,12,2.6,15
2013/3/2 8:38,1.2,14,1.2,14,2.1,10
2013/3/2 8:39,1.4,14,1.4,14,3.5,10
2013/3/2 8:40,1.5,13,1.5,14,2.7,12
2013/3/2 8:41,1.5,13,1.5,14,0.8,7
2013/3/2 8:42,1.6,13,1.6,13,2.9,13
2013/3/2 8:43,1.6,12,1.6,13,3,10
2013/3/2 8:44,1.5,12,1.6,13,1.3,10
2013/3/2 8:45,1.4,12,1.5,13,1.3,9
2013/3/2 8:46,1.3,11,1.4,13,1.8,10
2013/3/2 8:47,1.1,11,1.2,13,0.5,10
2013/3/2 8:48,1,11,1.1,13,0.4,16
2013/3/2 8:49,0.8,12,1,13,0.9,2
2013/3/2 8:50,0.7,12,0.8,13,2.1,16
2013/3/2 8:51,0.9,12,0.9,13,2.5,16
2013/3/2 8:52,0.9,13,0.9,13,3.1,1
2013/3/2 8:53,0.9,15,0.9,12,2.1,14
2013/3/2 8:54,0.9,15,0.9,12,2.2,14
2013/3/2 8:55,0.9,15,0.9,12,1.1,13
2013/3/2 8:56,1,16,1,11,3,15
2013/3/2 8:57,1.3,16,1.3,16,4.8,16
2013/3/2 8:58,1.4,16,1.4,16,2.9,16
2013/3/2 8:59,1.5,16,1.5,16,1.8,2
2013/3/2 9:00,1.5,16,1.5,16,1.6,1
2013/3/2 9:01,1.6,16,1.6,16,3.7,15
2013/3/2 9:02,1.7,16,1.7,16,6,16
2013/3/2 9:03,1.9,16,1.9,16,5.2,16
2013/3/2 9:04,2,16,2,16,2.9,14
2013/3/2 9:05,2.1,1,2.1,1,3.9,16
2013/3/2 9:06,2.2,1,2.2,1,4.4,1
2013/3/2 9:07,2.1,1,2.2,1,3.8,16
2013/3/2 9:08,2,1,2.1,1,1.5,6
2013/3/2 9:09,2,16,2,1,1.1,15
2013/3/2 9:10,2,16,2,1,1.8,10
2013/3/2 9:11,1.8,16,2,1,1.3,11
2013/3/2 9:12,1.6,15,1.8,1,2.4,10
2013/3/2 9:13,1.4,15,1.6,1,3.1,9
2013/3/2 9:14,1.3,14,1.4,1,3.3,9
2013/3/2 9:15,1.4,12,1.4,1,4.7,8
2013/3/2 9:16,1.2,10,1.4,1,4.1,7
2013/3/2 9:17,1.3,10,1.3,1,4.7,9
2013/3/2 9:18,1.5,10,1.5,1,4.7,9
2013/3/2 9:19,1.7,10,1.7,16,4.5,10
2013/3/2 9:20,1.7,10,1.7,16,3,11
2013/3/2 9:21,1.9,10,1.9,10,3.2,8
2013/3/2 9:22,1.9,10,1.9,10,3.5,8
2013/3/2 9:23,1.9,9,1.9,10,2.1,9
2013/3/2 9:24,1.8,9,1.9,10,1.4,10
2013/3/2 9:25,1.8,10,1.8,10,2.6,11
2013/3/2 9:26,1.7,10,1.8,10,2.2,11
2013/3/2 9:27,1.7,10,1.8,10,2.5,12
2013/3/2 9:28,1.6,11,1.7,10,2,13
2013/3/2 9:29,1.5,11,1.6,10,4.1,10
2013/3/2 9:30,1.7,11,1.7,10,5.4,9
2013/3/2 9:31,1.9,11,1.9,10,4.7,10
2013/3/2 9:32,1.9,11,1.9,10,3.8,10
2013/3/2 9:33,2.1,11,2.1,11,4.1,11
2013/3/2 9:34,2.4,11,2.4,11,4.3,9
2013/3/2 9:35,2.4,11,2.4,11,3.1,13
2013/3/2 9:36,2.6,11,2.6,11,5.5,12
2013/3/2 9:37,2.7,11,2.7,11,4.9,11
2013/3/2 9:38,2.7,11,2.7,11,3.8,11
2013/3/2 9:39,2.7,11,2.8,11,2.2,2
2013/3/2 9:40,2.4,11,2.6,11,1.9,6
2013/3/2 9:41,2.2,12,2.4,11,2.5,16
2013/3/2 9:42,2.1,12,2.2,11,3.1,14
2013/3/2 9:43,1.8,12,2.1,11,1.5,15
2013/3/2 9:44,1.6,13,1.8,11,1.3,1
2013/3/2 9:45,1.5,13,1.6,11,2,12
2013/3/2 9:46,1.3,13,1.5,11,3.6,9
2013/3/2 9:47,1.2,13,1.3,11,1.8,7
2013/3/2 9:48,1.1,14,1.1,11,1.6,15
2013/3/2 9:49,1,13,1,11,1.8,10
2013/3/2 9:50,1,13,1,11,1.9,10
2013/3/2 9:51,0.9,13,1,12,0.4,9
2013/3/2 9:52,0.8,12,0.9,12,1.8,7
2013/3/2 9:53,0.8,11,0.8,12,1.4,8
2013/3/2 9:54,0.9,11,0.9,13,3.2,11
2013/3/2 9:55,1,10,1,13,3.6,9
2013/3/2 9:56,0.9,10,1,13,3.9,9
2013/3/2 9:57,1,11,1.1,13,3.5,16
2013/3/2 9:58,1.2,10,1.2,10,3.8,1
2013/3/2 9:59,1.4,10,1.4,10,3.6,1
2013/3/2 10:00,1.4,11,1.4,10,2.9,2
2013/3/2 10:01,1.6,14,1.6,14,4.7,1
2013/3/2 10:02,1.7,15,1.7,15,3.2,1
2013/3/2 10:03,1.8,16,1.8,15,3.2,16
2013/3/2 10:04,1.8,1,1.8,15,4.3,1
2013/3/2 10:05,1.8,1,1.9,1,4.7,3
2013/3/2 10:06,1.9,1,1.9,1,3.1,5
2013/3/2 10:07,1.8,1,1.9,1,2,16
2013/3/2 10:08,1.6,1,1.8,1,1.8,15
2013/3/2 10:09,1.4,1,1.6,1,1.4,8
2013/3/2 10:10,1.5,2,1.5,1,2.2,7
2013/3/2 10:11,1.5,3,1.5,1,2.9,9
2013/3/2 10:12,1.4,5,1.4,1,2,6
2013/3/2 10:13,1.4,7,1.4,1,2.7,7
2013/3/2 10:14,1.4,7,1.5,1,2,7
2013/3/2 10:15,1.2,8,1.4,1,2.4,1
2013/3/2 10:16,1.5,7,1.5,1,6.8,1
2013/3/2 10:17,1.7,6,1.7,1,7.1,1
2013/3/2 10:18,1.9,5,1.9,5,4.8,1
2013/3/2 10:19,2.4,3,2.4,3,8.3,15
2013/3/2 10:20,2.6,1,2.6,1,4.7,14
2013/3/2 10:21,2.5,1,2.6,1,3.7,15
2013/3/2 10:22,2.7,16,2.7,1,3.8,16
2013/3/2 10:23,2.8,16,2.8,16,4.7,16
2013/3/2 10:24,3,16,3,16,3.9,16
2013/3/2 10:25,3.1,16,3.1,16,4.2,16
2013/3/2 10:26,2.8,16,3.1,16,2.5,16
2013/3/2 10:27,2.6,16,2.8,16,1.3,14
2013/3/2 10:28,2.3,15,2.6,16,0.9,16
2013/3/2 10:29,1.8,15,2.2,16,0.3,7
2013/3/2 10:30,1.6,15,1.7,16,0.9,10
2013/3/2 10:31,1.5,14,1.5,16,1.3,10
2013/3/2 10:32,1.4,13,1.5,16,3.2,11
2013/3/2 10:33,1.3,12,1.4,16,3.6,11
2013/3/2 10:34,1.3,11,1.3,16,3.3,9
2013/3/2 10:35,1.2,10,1.3,16,2.5,10
2013/3/2 10:36,1.1,10,1.2,16,1.6,9
2013/3/2 10:37,1.2,9,1.2,16,2.7,11
2013/3/2 10:38,1.4,10,1.4,15,3,9
2013/3/2 10:39,1.6,10,1.6,15,3.2,8
2013/3/2 10:40,1.6,10,1.6,10,2.9,9
2013/3/2 10:41,1.7,9,1.7,10,2.7,8
2013/3/2 10:42,1.6,9,1.7,10,1.6,9
2013/3/2 10:43,1.5,9,1.6,10,3.6,10
2013/3/2 10:44,1.4,9,1.5,10,3.7,10
2013/3/2 10:45,1.4,9,1.4,10,2.7,11
2013/3/2 10:46,1.4,9,1.4,10,2.4,8
2013/3/2 10:47,1.5,9,1.5,10,3.3,8
2013/3/2 10:48,1.5,9,1.6,10,3.3,7
2013/3/2 10:49,1.6,9,1.6,10,3.6,7
2013/3/2 10:50,1.7,8,1.7,10,2.7,6
2013/3/2 10:51,1.6,8,1.6,9,1.9,8
2013/3/2 10:52,1.6,8,1.6,8,1.8,14
2013/3/2 10:53,1.6,8,1.6,8,2.4,1
2013/3/2 10:54,1.5,8,1.6,8,1.6,1
2013/3/2 10:55,1.8,8,1.8,8,6.9,1
2013/3/2 10:56,2,7,2,7,6.1,1
2013/3/2 10:57,2.1,2,2.1,4,6.7,1
2013/3/2 10:58,2.3,1,2.3,1,5.4,1
2013/3/2 10:59,2.5,16,2.5,16,6.8,15
2013/3/2 11:00,2.7,16,2.7,16,5.8,15
2013/3/2 11:01,2.8,16,2.8,15,5.2,16
2013/3/2 11:02,3.1,16,3.1,16,6.2,2
2013/3/2 11:03,3.2,16,3.2,16,5.2,16
2013/3/2 11:04,3.6,16,3.6,16,6,2
2013/3/2 11:05,3.6,16,3.6,16,8.6,2
2013/3/2 11:06,3.7,16,3.7,16,7.1,2
2013/3/2 11:07,3.6,16,3.7,16,6.5,16
2013/3/2 11:08,3.4,16,3.6,16,4.1,1
2013/3/2 11:09,3.3,16,3.4,16,5.7,16
2013/3/2 11:10,3.1,1,3.3,16,3.5,16
2013/3/2 11:11,3.2,1,3.2,16,6,2
2013/3/2 11:12,3.1,1,3.2,16,6.5,16
2013/3/2 11:13,3.1,1,3.1,16,5.7,14
2013/3/2 11:14,2.9,16,3.1,16,4.5,16
2013/3/2 11:15,3,16,3,16,6.9,16
2013/3/2 11:16,2.9,16,2.9,16,5.7,16
2013/3/2 11:17,2.8,16,2.9,16,4.8,2
2013/3/2 11:18,2.8,16,2.9,16,7.4,14
2013/3/2 11:19,2.9,16,2.9,16,6.1,1
2013/3/2 11:20,3,16,3,1,5.8,1
2013/3/2 11:21,3.1,16,3.1,1,5.8,16
2013/3/2 11:22,3,16,3.1,1,3.3,16
2013/3/2 11:23,3,16,3,1,5.1,15
2013/3/2 11:24,3,16,3.1,16,5.5,16
2013/3/2 11:25,2.8,16,3,16,4.5,14